FW2156 Weather Reports


time (UTC)temp
C
wind
direction
speed
KPH
gust
KPH
rain 1hr
cm
rain 24hr
cm
rain mn
cm
humidity
%
barometer
mb
20260503051856 12 252 0.0 0.0 0.00 0.00 0.00 49 1011.2
20260503051350 12 206 0.0 0.0 0.00 0.00 0.00 50 1011.2
20260503050855 12 233 0.0 0.0 0.00 0.00 0.00 49 1011.2
20260503050425 12 232 0.0 0.0 0.00 0.00 0.00 49 1010.8
20260503045951 12 232 0.0 0.0 0.00 0.00 0.00 49 1011.2
20260503045452 12 244 0.0 1.6 0.00 0.00 0.00 51 1011.2
20260503044951 12 227 1.6 3.2 0.00 0.00 0.00 56 1010.8
20260503044523 12 196 0.0 0.0 0.00 0.00 0.00 60 1010.8
20260503044026 12 198 0.0 0.0 0.00 0.00 0.00 60 1011.2
20260503043553 13 200 0.0 0.0 0.00 0.00 0.00 64 1010.8
20260503043125 13 199 0.0 0.0 0.00 0.00 0.00 63 1010.8
20260503042625 13 200 0.0 0.0 0.00 0.00 0.00 63 1010.8
20260503042152 13 199 0.0 0.0 0.00 0.00 0.00 62 1011.2
20260503041655 13 199 0.0 0.0 0.00 0.00 0.00 61 1010.8
20260503041226 14 200 0.0 0.0 0.00 0.00 0.00 59 1010.8
20260503040725 14 211 0.0 0.0 0.00 0.00 0.00 59 1010.8
20260503040226 14 205 0.0 0.0 0.00 0.00 0.00 59 1010.8
20260503035725 15 195 0.0 0.0 0.00 0.00 0.00 58 1010.8
20260503035223 15 174 0.0 0.0 0.00 0.00 0.00 58 1010.8
20260503034727 15 250 0.0 1.6 0.00 0.00 0.00 57 1010.5
20260503034226 15 203 0.0 1.6 0.00 0.00 0.00 57 1010.5
20260503033724 15 237 1.6 3.2 0.00 0.00 0.00 56 1010.5
20260503033224 15 278 3.2 4.8 0.00 0.00 0.00 56 1010.5
20260503032724 15 211 0.0 0.0 0.00 0.00 0.00 55 1010.8
20260503032224 16 206 0.0 1.6 0.00 0.00 0.00 54 1010.5
20260503031725 16 292 3.2 3.2 0.00 0.00 0.00 54 1010.5
20260503031224 16 242 0.0 1.6 0.00 0.00 0.00 53 1010.5
20260503030723 16 267 3.2 3.2 0.00 0.00 0.00 52 1010.8
20260503030224 16 299 3.2 3.2 0.00 0.00 0.00 52 1010.5
20260503025726 16 289 1.6 3.2 0.00 0.00 0.00 52 1010.5
20260503025223 17 286 0.0 1.6 0.00 0.00 0.00 51 1010.5
20260503024728 17 287 1.6 3.2 0.00 0.00 0.00 51 1010.5
20260503024223 17 189 1.6 3.2 0.00 0.00 0.00 50 1010.5
20260503023726 17 208 1.6 1.6 0.00 0.00 0.00 50 1010.2
20260503023225 17 262 1.6 1.6 0.00 0.00 0.00 49 1010.2
20260503022726 17 139 1.6 3.2 0.00 0.00 0.00 48 1010.2
20260503022225 18 354 0.0 1.6 0.00 0.00 0.00 47 1010.5
20260503021726 18 221 0.0 0.0 0.00 0.00 0.00 47 1010.5
20260503021229 18 171 0.0 1.6 0.00 0.00 0.00 47 1010.5
20260503020656 19 341 0.0 0.0 0.00 0.00 0.00 47 1010.2
20260503020154 20 26 1.6 3.2 0.00 0.00 0.00 46 1010.5
20260503015653 20 252 1.6 4.8 0.00 0.00 0.00 45 1010.5
20260503015129 20 180 1.6 3.2 0.00 0.00 0.00 44 1010.5
20260503014623 20 216 0.0 1.6 0.00 0.00 0.00 42 1010.5
20260503014125 21 130 0.0 1.6 0.00 0.00 0.00 40 1010.5
20260503013623 21 175 3.2 3.2 0.00 0.00 0.00 39 1010.5
20260503013124 21 134 0.0 1.6 0.00 0.00 0.00 38 1010.5
20260503012626 21 157 1.6 3.2 0.00 0.00 0.00 39 1010.5
20260503012126 21 218 0.0 0.0 0.00 0.00 0.00 39 1010.5
20260503011627 21 264 1.6 3.2 0.00 0.00 0.00 38 1010.5
20260503011054 21 279 1.6 3.2 0.00 0.00 0.00 38 1010.8
20260503010549 21 259 3.2 3.2 0.00 0.00 0.00 37 1010.8
20260503010030 21 231 1.6 1.6 0.00 0.00 0.00 38 1010.8
20260503005529 21 285 1.6 3.2 0.00 0.00 0.00 37 1010.8
20260503005030 21 255 4.8 4.8 0.00 0.00 0.00 37 1011.2
20260503004529 21 196 0.0 0.0 0.00 0.00 0.00 40 1010.8
20260503004029 20 125 0.0 0.0 0.00 0.00 0.00 39 1010.8
20260503003530 20 357 0.0 1.6 0.00 0.00 0.00 39 1010.8
20260503003029 20 200 0.0 1.6 0.00 0.00 0.00 40 1010.8
20260503002530 20 221 0.0 1.6 0.00 0.00 0.00 40 1010.8
20260503002029 20 34 1.6 1.6 0.00 0.00 0.00 40 1011.2
20260503001529 20 123 0.0 1.6 0.00 0.00 0.00 41 1011.2
20260503001028 20 222 1.6 3.2 0.00 0.00 0.00 41 1011.2
20260503000528 20 85 1.6 3.2 0.00 0.00 0.00 41 1011.2
20260503000027 20 248 1.6 3.2 0.00 0.00 0.00 40 1011.2
20260502235528 20 218 0.0 0.0 0.00 0.00 0.00 40 1011.5
20260502235028 20 232 1.6 3.2 0.00 0.00 0.00 41 1011.2
20260502234527 20 263 1.6 3.2 0.00 0.00 0.00 40 1011.2
20260502234027 20 99 3.2 4.8 0.00 0.00 0.00 41 1011.5
20260502233528 20 88 4.8 4.8 0.00 0.00 0.00 40 1011.5
20260502233026 20 163 1.6 3.2 0.00 0.00 0.00 41 1011.5
20260502232527 21 121 3.2 3.2 0.00 0.00 0.00 41 1011.5
20260502232027 21 180 1.6 3.2 0.00 0.00 0.00 40 1011.5
20260502231528 21 174 1.6 3.2 0.00 0.00 0.00 41 1011.9
20260502231027 21 102 4.8 4.8 0.00 0.00 0.00 40 1011.9
20260502230526 21 110 1.6 1.6 0.00 0.00 0.00 40 1011.9
20260502230026 21 195 0.0 1.6 0.00 0.00 0.00 39 1011.9
20260502225525 21 199 4.8 8.0 0.00 0.00 0.00 40 1011.9
20260502225026 21 116 0.0 0.0 0.00 0.00 0.00 40 1011.9
20260502224527 20 283 3.2 4.8 0.00 0.00 0.00 40 1011.9
20260502224029 20 73 0.0 1.6 0.00 0.00 0.00 40 1012.2
20260502223527 20 117 3.2 4.8 0.00 0.00 0.00 42 1012.2
20260502223025 20 151 0.0 1.6 0.00 0.00 0.00 41 1012.5
20260502222528 20 17 0.0 1.6 0.00 0.00 0.00 41 1012.5
20260502222027 20 158 3.2 4.8 0.00 0.00 0.00 41 1012.5
20260502221526 20 284 1.6 1.6 0.00 0.00 0.00 42 1012.5
20260502221026 20 84 4.8 8.0 0.00 0.00 0.00 41 1012.9
20260502220525 20 137 1.6 3.2 0.00 0.00 0.00 43 1012.9
20260502220027 20 268 3.2 3.2 0.00 0.00 0.00 42 1012.9
20260502215524 20 46 3.2 4.8 0.00 0.00 0.00 43 1012.9
20260502215027 20 121 3.2 3.2 0.00 0.00 0.00 42 1012.9
20260502214525 20 233 1.6 1.6 0.00 0.00 0.00 43 1013.2
20260502214025 19 133 6.4 9.7 0.00 0.00 0.00 43 1013.2
20260502213454 19 177 0.0 1.6 0.00 0.00 0.00 42 1012.9
20260502212948 19 116 4.8 8.0 0.00 0.00 0.00 43 1013.2
20260502212441 19 176 6.4 8.0 0.00 0.00 0.00 43 1013.2
20260502211941 19 227 3.2 4.8 0.00 0.00 0.00 42 1012.9
20260502211441 19 157 1.6 3.2 0.00 0.00 0.00 43 1013.5
20260502210937 20 246 0.0 1.6 0.00 0.00 0.00 44 1013.2
20260502210439 20 223 0.0 1.6 0.00 0.00 0.00 43 1013.2
20260502205941 19 231 3.2 4.8 0.00 0.00 0.00 42 1013.5
20260502205438 19 130 0.0 1.6 0.00 0.00 0.00 43 1013.5
20260502204938 19 341 1.6 3.2 0.00 0.00 0.00 42 1013.9
20260502204440 18 193 0.0 1.6 0.00 0.00 0.00 43 1013.5
20260502203940 18 190 1.6 1.6 0.00 0.00 0.00 43 1013.9
20260502203439 18 103 3.2 4.8 0.00 0.00 0.00 43 1013.9
20260502202937 18 170 0.0 0.0 0.00 0.00 0.00 44 1014.2
20260502202439 18 222 3.2 4.8 0.00 0.00 0.00 44 1014.2
20260502201913 17 140 0.0 0.0 0.00 0.00 0.00 45 1014.2
20260502201411 18 133 1.6 1.6 0.00 0.00 0.00 46 1014.2
20260502200911 17 111 1.6 3.2 0.00 0.00 0.00 46 1014.2
20260502200414 17 244 1.6 1.6 0.00 0.00 0.00 45 1014.2
20260502195913 17 136 1.6 1.6 0.00 0.00 0.00 47 1014.2
20260502195414 17 85 3.2 4.8 0.00 0.00 0.00 47 1014.6
20260502194915 17 134 1.6 3.2 0.00 0.00 0.00 44 1014.6
20260502194413 17 211 0.0 1.6 0.00 0.00 0.00 45 1014.6
20260502193915 17 127 3.2 4.8 0.00 0.00 0.00 49 1014.6
20260502193413 17 328 0.0 1.6 0.00 0.00 0.00 45 1014.9
20260502192912 17 215 1.6 3.2 0.00 0.00 0.00 46 1014.9
20260502192412 16 137 1.6 4.8 0.00 0.00 0.00 47 1014.6
20260502191911 17 125 8.0 9.7 0.00 0.00 0.00 48 1014.6
20260502191415 17 80 1.6 3.2 0.00 0.00 0.00 48 1014.9
20260502190914 16 124 1.6 1.6 0.00 0.00 0.00 47 1015.2
20260502190417 16 247 0.0 1.6 0.00 0.00 0.00 47 1015.2
20260502185842 16 123 3.2 3.2 0.00 0.00 0.00 48 1014.9
20260502185340 16 258 3.2 4.8 0.00 0.00 0.00 47 1015.2
20260502184837 16 194 3.2 4.8 0.00 0.00 0.00 48 1015.2
20260502184315 16 174 0.0 1.6 0.00 0.00 0.00 48 1015.2
20260502183812 16 306 4.8 4.8 0.00 0.00 0.00 49 1015.2
20260502183312 16 277 1.6 1.6 0.00 0.00 0.00 47 1015.2
20260502182813 16 164 1.6 4.8 0.00 0.00 0.00 49 1015.2
20260502182313 16 108 3.2 3.2 0.00 0.00 0.00 50 1015.6
20260502181813 15 148 3.2 4.8 0.00 0.00 0.00 50 1015.6
20260502181314 15 71 0.0 1.6 0.00 0.00 0.00 49 1015.9
20260502180811 15 155 1.6 3.2 0.00 0.00 0.00 50 1015.6
20260502180312 15 147 1.6 3.2 0.00 0.00 0.00 50 1015.9
20260502170142 13 141 1.6 1.6 0.00 0.00 0.00 53 1016.3
20260502164139 12 142 0.0 1.6 0.00 0.00 0.00 56 1016.3
20260502163638 12 35 3.2 3.2 0.00 0.00 0.00 58 1016.6
20260502163118 11 100 3.2 3.2 0.00 0.00 0.00 59 1016.6
20260502162613 11 103 1.6 1.6 0.00 0.00 0.00 59 1016.6
20260502162113 11 140 1.6 1.6 0.00 0.00 0.00 58 1016.3
20260502161615 11 93 3.2 4.8 0.00 0.00 0.00 60 1016.6
20260502161045 11 101 4.8 4.8 0.00 0.00 0.00 63 1016.6
20260502160540 11 154 0.0 0.0 0.00 0.00 0.00 63 1016.6
20260502152039 10 283 0.0 1.6 0.00 0.00 0.00 68 1016.9
20260502151538 10 218 0.0 0.0 0.00 0.00 0.00 68 1016.9
20260502151039 10 229 0.0 1.6 0.00 0.00 0.00 70 1016.6
20260502150530 10 314 0.0 1.6 0.00 0.00 0.00 70 1016.6
20260502130539 8 228 0.0 0.0 0.00 0.00 0.00 73 1016.3
20260502123538 8 129 0.0 0.0 0.00 0.00 0.00 74 1016.3
20260502123042 8 161 0.0 0.0 0.00 0.00 0.00 73 1015.9
20260502122542 8 228 0.0 0.0 0.00 0.00 0.00 73 1016.3
20260502122043 8 228 0.0 0.0 0.00 0.00 0.00 72 1015.9
20260502121542 8 171 0.0 0.0 0.00 0.00 0.00 72 1015.9
20260502121025 8 228 0.0 0.0 0.00 0.00 0.00 72 1015.9
20260502120525 8 246 0.0 0.0 0.00 0.00 0.00 71 1015.9
20260502115523 8 249 0.0 0.0 0.00 0.00 0.00 71 1015.9
20260502115024 8 241 0.0 0.0 0.00 0.00 0.00 71 1015.9
20260502114526 8 239 0.0 0.0 0.00 0.00 0.00 71 1015.9
20260502114025 8 331 0.0 1.6 0.00 0.00 0.00 71 1015.9
20260502113522 8 187 0.0 0.0 0.00 0.00 0.00 71 1015.9
20260502113023 9 215 0.0 0.0 0.00 0.00 0.00 71 1015.9
20260502112524 9 358 0.0 1.6 0.00 0.00 0.00 71 1015.9
20260502112024 9 232 0.0 0.0 0.00 0.00 0.00 71 1015.9
20260502111522 9 216 0.0 0.0 0.00 0.00 0.00 70 1015.9
20260502111025 9 78 3.2 3.2 0.00 0.00 0.00 70 1015.9
20260502110542 9 325 0.0 1.6 0.00 0.00 0.00 69 1015.9
20260502110040 9 228 0.0 1.6 0.00 0.00 0.00 69 1015.9
20260502105541 9 240 1.6 1.6 0.00 0.00 0.00 68 1015.9
20260502105041 10 244 0.0 1.6 0.00 0.00 0.00 69 1016.3
20260502104539 10 231 0.0 1.6 0.00 0.00 0.00 68 1015.9
20260502104038 10 249 1.6 1.6 0.00 0.00 0.00 68 1015.9
20260502103541 10 255 0.0 0.0 0.00 0.00 0.00 69 1015.9
20260502103039 10 311 0.0 1.6 0.00 0.00 0.00 69 1015.9
20260502102621 10 250 0.0 1.6 0.00 0.00 0.00 70 1015.9
20260502102124 10 189 0.0 0.0 0.00 0.00 0.00 71 1015.9
20260502101642 10 4 0.0 0.0 0.00 0.00 0.00 70 1015.9
20260502101140 10 39 0.0 1.6 0.00 0.00 0.00 69 1016.3
20260502100624 10 335 1.6 3.2 0.00 0.00 0.00 69 1015.9
20260502100120 10 262 1.6 3.2 0.00 0.00 0.00 69 1015.6
20260502091119 10 279 1.6 1.6 0.00 0.00 0.00 69 1015.9
20260502090620 10 249 0.0 1.6 0.00 0.00 0.00 68 1015.9
20260502090118 10 233 3.2 3.2 0.00 0.00 0.00 67 1015.9
20260502071119 10 228 3.2 4.8 0.00 0.00 0.00 66 1015.9
20260502070621 10 247 1.6 1.6 0.00 0.00 0.00 66 1015.9
20260502070127 11 224 0.0 0.0 0.00 0.00 0.00 66 1015.6
20260502065616 11 232 0.0 0.0 0.00 0.00 0.00 65 1015.6
20260502065118 11 230 1.6 1.6 0.00 0.00 0.00 64 1015.6
20260502064619 11 241 0.0 1.6 0.00 0.00 0.00 63 1015.9
20260502064116 11 307 1.6 3.2 0.00 0.00 0.00 63 1015.9
20260502063620 11 257 1.6 3.2 0.00 0.00 0.00 63 1015.9
20260502063115 11 301 1.6 3.2 0.00 0.00 0.00 63 1015.9
20260502062615 11 327 3.2 4.8 0.00 0.00 0.00 63 1015.9
20260502062121 11 292 3.2 3.2 0.00 0.00 0.00 63 1015.9
20260502061615 11 273 3.2 4.8 0.00 0.00 0.00 64 1015.9
20260502061115 11 297 1.6 3.2 0.00 0.00 0.00 64 1015.9
20260502060614 11 249 1.6 1.6 0.00 0.00 0.00 65 1015.9
20260502060118 11 281 1.6 1.6 0.00 0.00 0.00 65 1015.9
20260502055616 11 262 1.6 1.6 0.00 0.00 0.00 64 1015.9
20260502055114 11 289 0.0 1.6 0.00 0.00 0.00 65 1015.6
20260502054614 11 256 0.0 1.6 0.00 0.00 0.00 65 1015.9
20260502054115 11 231 1.6 1.6 0.00 0.00 0.00 65 1015.9
20260502053617 11 224 0.0 1.6 0.00 0.00 0.00 65 1015.9
20260502053114 11 314 1.6 3.2 0.00 0.00 0.00 65 1015.6
20260502052615 11 72 0.0 0.0 0.00 0.00 0.00 65 1015.6